Weather History for Ironwood, MI

Change the Weather History Date:

Friday, January 25, 2013

  Actual Average Record
Temperature  
Mean Temperature 12 °F -  
Max Temperature 15 °F 20 °F 44 °F (2002)
Min Temperature 8 °F 6 °F -18 °F (2004)
Degree Days  
Heating Degree Days 54    
Moisture  
Dew Point 5 °F    
Average Humidity 73    
Maximum Humidity 86    
Minimum Humidity 62    
Precipitation  
Precipitation 0.00 in - - ()
Sea Level Pressure  
Sea Level Pressure 29.96 in    
Wind  
Wind Speed 9 mph (WSW)    
Max Wind Speed 16 mph    
Max Gust Speed 22 mph    
Visibility 6 miles    
Events      
Averages and records for this station are not official NWS values.
T = Trace of Precipitation, MM = Missing Value Source: NWS Daily Summary

Daily Weather History Graph

Daily Weather History Graph

Search for Another Location

Airport:

Trip Planner

Search our weather history database for the weather conditions in past years. The results will help you decide how hot, cold, wet, or windy it might be!

Date:

Astronomy

Jan. 25, 2013 Rise Set
Actual Time 7:31 AM CST 4:54 PM CST
Civil Twilight 6:58 AM CST 5:27 PM CST
Nautical Twilight 6:22 AM CST 6:04 PM CST
Astronomical Twilight 5:46 AM CST 6:39 PM CST
Moon 3:52 PM CST (1/25) 6:12 AM CST (1/25)
Length of Visible Light 10h 28m
Length of Day
9h 22m
Waxing Gibbous, 98% of the Moon is Illuminated
Jan 25
Waxing Gibbous
Jan 26
Full
Feb 3
Last Quarter
Feb 10
New
Feb 17
First Quarter

Hourly Weather History & Observations

Time (CST) Temp. Windchill Dew Point Humidity Pressure Visibility Wind Dir Wind Speed Gust Speed Precip Events Conditions
12:15 AM 8.6 °F -3.7 °F -0.4 °F 67% 30.12 in 10.0 mi SSE 8.1 mph 17.3 mph N/A   Overcast
12:35 AM 8.6 °F -5.5 °F -0.4 °F 67% 30.11 in 10.0 mi South 10.4 mph 18.4 mph N/A   Overcast
12:55 AM 8.6 °F -7.0 °F -0.4 °F 67% 30.10 in 10.0 mi South 12.7 mph 19.6 mph N/A   Overcast
1:15 AM 8.6 °F -5.5 °F -0.4 °F 67% 30.08 in 10.0 mi South 10.4 mph 17.3 mph N/A   Overcast
1:35 AM 8.6 °F -6.3 °F -0.4 °F 67% 30.07 in 6.0 mi South 11.5 mph 21.9 mph N/A   Overcast
1:55 AM 8.6 °F -6.3 °F 1.4 °F 73% 30.07 in 7.0 mi South 11.5 mph 19.6 mph N/A   Overcast
2:15 AM 10.4 °F -3.3 °F -0.4 °F 62% 30.06 in 7.0 mi South 10.4 mph - N/A   Overcast
2:35 AM 8.6 °F -7.0 °F 3.2 °F 79% 30.04 in 4.0 mi South 12.7 mph 19.6 mph N/A   Overcast
2:55 AM 10.4 °F -2.4 °F 1.4 °F 67% 30.03 in 10.0 mi South 9.2 mph 18.4 mph N/A   Overcast
3:15 AM 10.4 °F -4.1 °F 3.2 °F 73% 30.02 in 5.0 mi South 11.5 mph 16.1 mph N/A   Overcast
3:35 AM 10.4 °F -0.4 °F 3.2 °F 73% 30.01 in 3.0 mi SSW 6.9 mph - N/A   Overcast
3:55 AM 10.4 °F -1.5 °F 1.4 °F 67% 29.99 in 3.0 mi South 8.1 mph - N/A   Overcast
4:15 AM 10.4 °F -3.3 °F 3.2 °F 73% 29.98 in 2.0 mi South 10.4 mph - N/A   Overcast
4:35 AM 10.4 °F -0.4 °F 1.4 °F 67% 29.96 in 5.0 mi South 6.9 mph - N/A   Overcast
4:55 AM 10.4 °F -0.4 °F 3.2 °F 73% 29.94 in 3.0 mi South 6.9 mph - N/A   Overcast
5:15 AM 10.4 °F -2.4 °F 3.2 °F 73% 29.94 in 10.0 mi South 9.2 mph - N/A   Overcast
5:35 AM 10.4 °F -1.5 °F 3.2 °F 73% 29.92 in 10.0 mi South 8.1 mph - N/A   Overcast
5:55 AM 10.4 °F -0.4 °F 3.2 °F 73% 29.91 in 7.0 mi South 6.9 mph - N/A   Overcast
6:15 AM 10.4 °F 0.8 °F 3.2 °F 73% 29.90 in 3.0 mi South 5.8 mph - N/A   Overcast
6:35 AM 10.4 °F -0.4 °F 5.0 °F 79% 29.89 in 2.5 mi South 6.9 mph - N/A   Overcast
6:55 AM 10.4 °F 2.2 °F 3.2 °F 73% 29.88 in 2.0 mi SSE 4.6 mph - N/A   Overcast
7:35 AM 10.4 °F 2.2 °F 3.2 °F 73% 29.87 in 1.5 mi South 4.6 mph - N/A   Overcast
7:55 AM 10.4 °F 2.2 °F 3.2 °F 73% 29.87 in 2.5 mi South 4.6 mph - N/A   Overcast
8:15 AM 10.4 °F 4.0 °F 3.2 °F 73% 29.87 in 4.0 mi South 3.5 mph - N/A   Overcast
8:35 AM 10.4 °F 0.8 °F 5.0 °F 79% 29.87 in 5.0 mi South 5.8 mph - N/A   Overcast
8:55 AM 10.4 °F 2.2 °F 3.2 °F 73% 29.86 in 3.0 mi South 4.6 mph - N/A   Overcast
9:15 AM 10.4 °F 2.2 °F 5.0 °F 79% 29.86 in 2.5 mi SSW 4.6 mph - N/A   Overcast
9:35 AM 10.4 °F 0.8 °F 5.0 °F 79% 29.86 in 1.0 mi SSW 5.8 mph - N/A   Overcast
9:55 AM 12.2 °F 6.1 °F 6.8 °F 79% 29.86 in 1.5 mi South 3.5 mph - N/A   Overcast
10:15 AM 12.2 °F 4.3 °F 6.8 °F 79% 29.86 in 1.0 mi SSW 4.6 mph - N/A   Overcast
10:35 AM 12.2 °F 2.9 °F 6.8 °F 79% 29.85 in 2.0 mi SW 5.8 mph - N/A   Overcast
10:55 AM 12.2 °F 1.7 °F 6.8 °F 79% 29.86 in 4.0 mi SW 6.9 mph - N/A   Mostly Cloudy
11:15 AM 12.2 °F 4.3 °F 6.8 °F 79% 29.85 in 2.5 mi SW 4.6 mph - N/A   Overcast
11:35 AM 14.0 °F 5.1 °F 6.8 °F 73% 29.85 in 2.0 mi West 5.8 mph - N/A   Overcast
11:55 AM 14.0 °F 2.9 °F 6.8 °F 73% 29.84 in 1.8 mi West 8.1 mph - N/A   Overcast
12:15 PM 14.0 °F 2.9 °F 5.0 °F 67% 29.85 in 5.0 mi WNW 8.1 mph - N/A   Overcast
12:35 PM 14.0 °F 2.9 °F 6.8 °F 73% 29.84 in 1.2 mi NW 8.1 mph - N/A   Overcast
12:55 PM 14.0 °F 6.5 °F 6.8 °F 73% 29.85 in 3.0 mi NNW 4.6 mph - N/A   Mostly Cloudy
1:15 PM 14.0 °F 6.5 °F 3.2 °F 62% 29.86 in 10.0 mi WNW 4.6 mph - N/A   Scattered Clouds
1:35 PM 15.8 °F 3.4 °F 6.8 °F 68% 29.86 in 10.0 mi NW 10.4 mph - N/A   Mostly Cloudy
1:55 PM 14.0 °F 1.2 °F 5.0 °F 67% 29.88 in 10.0 mi NW 10.4 mph - N/A   Overcast
2:15 PM 14.0 °F 2.0 °F 6.8 °F 73% 29.88 in 10.0 mi NW 9.2 mph - N/A   Mostly Cloudy
2:35 PM 15.8 °F 6.1 °F 5.0 °F 62% 29.89 in 9.0 mi WNW 6.9 mph - N/A   Mostly Cloudy
2:55 PM 15.8 °F 5.1 °F 6.8 °F 68% 29.90 in 10.0 mi NNW 8.1 mph - N/A   Overcast
3:15 PM 15.8 °F 6.1 °F 6.8 °F 68% 29.92 in 10.0 mi NW 6.9 mph - N/A   Overcast
3:35 PM 15.8 °F 7.2 °F 6.8 °F 68% 29.93 in 1.8 mi NNW 5.8 mph - N/A   Overcast
3:55 PM 14.0 °F 6.5 °F 6.8 °F 73% 29.93 in 1.2 mi NW 4.6 mph - N/A   Overcast
4:15 PM 15.8 °F 6.1 °F 8.6 °F 73% 29.94 in 4.0 mi WNW 6.9 mph - N/A   Overcast
4:35 PM 15.8 °F 5.1 °F 8.6 °F 73% 29.95 in 7.0 mi WNW 8.1 mph - N/A   Overcast
4:55 PM 15.8 °F 6.1 °F 6.8 °F 68% 29.96 in 10.0 mi WNW 6.9 mph - N/A   Overcast
5:15 PM 15.8 °F 3.4 °F 6.8 °F 68% 29.96 in 10.0 mi WNW 10.4 mph - N/A   Overcast
5:35 PM 14.0 °F 2.0 °F 6.8 °F 73% 29.97 in 10.0 mi WNW 9.2 mph - N/A   Overcast
5:55 PM 14.0 °F 2.0 °F 8.6 °F 79% 29.98 in 7.0 mi WNW 9.2 mph - N/A   Overcast
6:15 PM 14.0 °F -0.2 °F 10.4 °F 86% 29.99 in 2.5 mi WNW 12.7 mph - N/A   Overcast
6:35 PM 14.0 °F -2.0 °F 8.6 °F 79% 30.00 in 2.0 mi WNW 16.1 mph - N/A   Overcast
6:55 PM 12.2 °F -3.1 °F 8.6 °F 85% 30.01 in 9.0 mi WNW 13.8 mph - N/A   Overcast
7:15 PM 12.2 °F -2.5 °F 5.0 °F 73% 30.02 in 10.0 mi WNW 12.7 mph 19.6 mph N/A   Overcast
7:35 PM 12.2 °F -3.7 °F 5.0 °F 73% 30.02 in 10.0 mi WNW 15.0 mph 19.6 mph N/A   Overcast
7:55 PM 12.2 °F -2.5 °F 5.0 °F 73% 30.03 in 10.0 mi WNW 12.7 mph - N/A   Overcast
8:15 PM 12.2 °F -1.8 °F 5.0 °F 73% 30.04 in 10.0 mi WNW 11.5 mph 16.1 mph N/A   Overcast
8:35 PM 12.2 °F -1.0 °F 3.2 °F 67% 30.04 in 5.0 mi WNW 10.4 mph 16.1 mph N/A   Overcast
8:55 PM 12.2 °F -3.1 °F 6.8 °F 79% 30.05 in 3.0 mi WNW 13.8 mph - N/A   Overcast
9:15 PM 12.2 °F -1.8 °F 6.8 °F 79% 30.05 in 3.0 mi WNW 11.5 mph - N/A   Overcast
9:35 PM 12.2 °F -1.0 °F 6.8 °F 79% 30.06 in 7.0 mi WNW 10.4 mph - N/A   Overcast
9:55 PM 12.2 °F -1.8 °F 6.8 °F 79% 30.06 in 7.0 mi WNW 11.5 mph - N/A   Overcast
10:15 PM 12.2 °F -2.5 °F 6.8 °F 79% 30.06 in 5.0 mi WNW 12.7 mph - N/A   Overcast
10:35 PM 12.2 °F -1.0 °F 6.8 °F 79% 30.07 in 2.0 mi WNW 10.4 mph - N/A   Overcast
10:55 PM 12.2 °F -1.0 °F 6.8 °F 79% 30.08 in 2.0 mi WNW 10.4 mph - N/A   Overcast
11:15 PM 12.2 °F -1.8 °F 6.8 °F 79% 30.09 in 2.5 mi WNW 11.5 mph - N/A   Overcast
11:35 PM 12.2 °F -1.8 °F 6.8 °F 79% 30.10 in 3.0 mi West 11.5 mph - N/A   Overcast
11:55 PM 12.2 °F -1.8 °F 6.8 °F 79% 30.12 in 4.0 mi West 11.5 mph - N/A   Overcast